Regional Weather Roundup
Issued by NWS

Home | Current Version | Previous Version | Text Only | Print | Product List | Glossary On
Versions: 1 2 3 4 5 6 7 8 9 10 11 12 13 14 15 16 17 18 19 20 21 22 23 24 25 26 27 28 29 30 31 32 33 34 35 36 37 38 39 40 41 42 43 44 45 46 47 48 49 50
000
ASUS46 KSTO 240309
RWRCA

NORTHERN AND CENTRAL CA REGIONAL WEATHER ROUNDUP
NATIONAL WEATHER SERVICE SACRAMENTO CA
700 PM PST MON JAN 23 2017

NOTE: FAIR INDICATES FEW OR NO CLOUDS BELOW 12,000 FEET WITH NO
SIGNIFICANT WEATHER AND/OR OBSTRUCTIONS TO VISIBILITY.

CAZ001-003-240400-
NORTHWEST AREA

CITY           SKY/WX    TMP DP  RH WIND       PRES   REMARKS
CRESCENT CITY  CLOUDY    46  39  76 CALM      29.81R
ARCATA         NOT AVBL
SHELTER COVE   NOT AVBL
UKIAH          LGT RAIN  43  40  89 CALM      29.83R
$$

CAZ006-505>513-240400-
BAY AREA

CITY           SKY/WX    TMP DP  RH WIND       PRES   REMARKS
SANTA ROSA     LGT RAIN  46  41  82 SW5       29.84R
SAN RAFAEL     N/A       46  MM  MM MISG
NAPA           CLOUDY    48  41  76 S6        29.86R
CONCORD        LGT RAIN  46  38  73 SW6       29.88R
OAKLAND CITY   N/A      MM  MM  MM MISG
OAKLAND        MOCLDY    50  43  77 S8        29.88R
SAN FRAN CITY  N/A       47  MM  79 MISG
SAN FRAN ARPT  LGT RAIN  48  40  73 S7        29.87R
LIVERMORE      PTCLDY    45  38  76 S5        29.86R
HAYWARD        MOCLDY    48  37  65 SE7       29.87R
REDWOOD CITY   N/A       MM  MM  MM MISG
MOFFETT ARPT   MOCLDY    46  40  79 SE5       29.89R
SAN JOSE ARPT  RAIN      47  42  83 CALM      29.89R
$$
CAZ034-037-514>518-240400-
CENTRAL COAST

CITY           SKY/WX    TMP DP  RH WIND       PRES   REMARKS
WATSONVILLE    PTCLDY    43  43 100 CALM      29.90S
SALINAS        RAIN      44  41  89 E5        29.90R
MONTEREY       MOCLDY    45  42  89 SE5       29.90R
PT PIEDRAS BLS NOT AVBL
SAN LUIS OBISP CLEAR     46  41  82 CALM      29.92R
SANTA MARIA    CLEAR     45  43  93 CALM      29.92R
$$
CAZ015-016-240400-
NORTHERN SACRAMENTO VALLEY

CITY           SKY/WX    TMP DP  RH WIND       PRES   REMARKS
REDDING        CLOUDY    45  41  86 N6        29.83R
RED BLUFF      MOCLDY    44  39  82 SE6       29.85R
OROVILLE       CLOUDY    46  37  71 E7        29.87R
$$
CAZ016>018-240400-
SOUTHERN SACRAMENTO VALLEY

CITY           SKY/WX    TMP DP  RH WIND       PRES   REMARKS
AUBURN         MOCLDY    37  37 100 SE9       29.86R WCI  31
BEALE AFB      CLEAR     43  41  93 E12       29.85R
LINCOLN        CLOUDY    43  37  81 SE8       29.86R
MARYSVILLE     MOCLDY    45  39  79 SE12      29.87R
SAC INTL ARPT  PTCLDY    47  42  83 S9        29.86R
MATHER AIRPORT MOCLDY    43  39  87 SE7       29.88R
DOWNTOWN SAC   N/A       46  MM  MM MISG
SAC EXEC ARPT  MOCLDY    46  40  79 SE5       29.87R
VACAVILLE      PTCLDY    46  39  76 CALM      29.87R
TRAVIS AFB     PTCLDY    43  39  85 SE7       29.85R
$$
CAZ019>021-240400-
SAN JOAQUIN VALLEY

CITY           SKY/WX    TMP DP  RH WIND       PRES   REMARKS
STOCKTON       PTCLDY    44  40  85 SE7       29.88R
MODESTO        CLEAR     46  38  73 E5        29.88R
MERCED         CLEAR     41  37  86 CALM      29.90R
LEMOORE        PTCLDY    46  41  82 CALM      29.92R
FRESNO         MOCLDY    44  39  82 E3        29.91R
HANFORD        LGT RAIN  47  44  90 CALM      29.92R
PORTERVILLE    PTCLDY    41  39  93 SE5       29.92R
BAKERSFIELD    MOCLDY    45  40  82 E5        29.91R
$$
CAZ011-012-071-240400-
NORTHERN MOUNTAINS

CITY           SKY/WX    TMP DP  RH WIND       PRES   REMARKS
YREKA          MOCLDY    32  28  85 E3        29.79R
MOUNT SHASTA   MOCLDY    29  26  89 CALM      29.77R
ALTURAS        PTCLDY    26  23  88 CALM      29.75R
$$
CAZ011-012-071-240400-
SIERRA NEVADA MTNS

CITY           SKY/WX    TMP DP  RH WIND       PRES   REMARKS
BLUE CANYON    NOT AVBL
TRUCKEE        FOG       18  16  93 SE3       29.74R VSB 3/4
TAHOE VLY ARPT MOCLDY    17  13  84 CALM      29.71R
MAMMOTH LAKES  FAIR       8   3  81 N5        29.69S WCI   0
$$




USA.gov is the U.S. government's official web portal to all federal, state and local government web resources and services.